• In Hungary
  • List of Countries
  • For 7 days
  • Water Temperature
  • Satellite Maps
  • Weather Map
  • News
  • Weather Widgets
  • user-avatar
    Login

    Hourly Weather Prutz

    Today, 21 January, Sunday

    Time Temperature Precipitation Wind Pressure Humidity
    00:00 -6°C° 2.1 mm 3 mps 620 mmHg 96%
    01:00 -2°C° 0 mm 1 mps 620 mmHg 97%
    02:00 -4°C° 1.6 mm 2 mps 620 mmHg 97%
    03:00 -4°C° 1.6 mm 2 mps 621 mmHg 97%
    04:00 -4°C° 1.6 mm 3 mps 621 mmHg 97%
    05:00 -4°C° 1.5 mm 3 mps 622 mmHg 96%
    06:00 -5°C° 1.5 mm 3 mps 622 mmHg 96%
    07:00 -5°C° 1.5 mm 3 mps 623 mmHg 95%
    08:00 -5°C° 1 mm 4 mps 623 mmHg 94%
    09:00 -7°C° 1 mm 4 mps 624 mmHg 94%
    10:00 -7°C° 1 mm 4 mps 624 mmHg 94%
    11:00 -7°C° 0.5 mm 4 mps 625 mmHg 92%
    12:00 -7°C° 0.5 mm 4 mps 626 mmHg 91%
    13:00 -7°C° 0.5 mm 4 mps 626 mmHg 90%
    14:00 -7°C° 0.2 mm 3 mps 627 mmHg 90%
    15:00 -7°C° 0.2 mm 3 mps 627 mmHg 90%
    16:00 -6°C° 0.2 mm 2 mps 628 mmHg 90%
    17:00 -7°C° 0.1 mm 2 mps 628 mmHg 91%
    18:00 -8°C° 0.1 mm 2 mps 628 mmHg 91%
    19:00 -9°C° 0.1 mm 2 mps 628 mmHg 91%
    20:00 -8°C° 0.3 mm 2 mps 629 mmHg 91%
    21:00 -8°C° 0.3 mm 2 mps 629 mmHg 91%
    22:00 -8°C° 0.3 mm 2 mps 629 mmHg 91%
    23:00 -7°C° 0.6 mm 2 mps 629 mmHg 92%

    Tomorrow, 22 January, Monday

    Time Temperature Precipitation Wind Pressure Humidity
    00:00 -6°C° 0.6 mm 2 mps 629 mmHg 92%
    01:00 -6°C° 0.6 mm 2 mps 629 mmHg 93%
    02:00 -5°C° 1.9 mm 2 mps 629 mmHg 94%
    03:00 -4°C° 1.9 mm 2 mps 628 mmHg 95%
    04:00 -3°C° 1.9 mm 2 mps 628 mmHg 96%
    05:00 -3°C° 3.2 mm 2 mps 628 mmHg 96%
    06:00 -2°C° 3.2 mm 2 mps 628 mmHg 96%
    07:00 -2°C° 3.2 mm 2 mps 628 mmHg 96%
    08:00 -1°C° 2.4 mm 2 mps 628 mmHg 96%
    09:00 -1°C° 2.4 mm 2 mps 629 mmHg 96%
    10:00 +1°C° 2.4 mm 2 mps 629 mmHg 96%
    11:00 +1°C° 1.9 mm 2 mps 629 mmHg 97%
    12:00 +3°C° 1.9 mm 1 mps 629 mmHg 97%
    13:00 +3°C° 1.9 mm 1 mps 629 mmHg 97%
    14:00 +2°C° 1.8 mm 2 mps 629 mmHg 97%
    15:00 +2°C° 1.8 mm 2 mps 629 mmHg 97%
    16:00 +2°C° 1.8 mm 2 mps 629 mmHg 97%
    17:00 +2°C° 1 mm 2 mps 629 mmHg 96%
    18:00 +1°C° 1 mm 2 mps 630 mmHg 96%
    19:00 +1°C° 1 mm 2 mps 630 mmHg 96%
    20:00 -1°C° 0.1 mm 2 mps 631 mmHg 95%
    21:00 -1°C° 0.1 mm 2 mps 631 mmHg 95%
    22:00 -2°C° 0.1 mm 2 mps 632 mmHg 95%
    23:00 -2°C° 0 mm 2 mps 632 mmHg 95%

    Day after tomorrow, 23 January, Tuesday

    Time Temperature Precipitation Wind Pressure Humidity
    00:00 -3°C° 0 mm 2 mps 632 mmHg 95%
    01:00 -3°C° 0 mm 2 mps 632 mmHg 95%
    02:00 -4°C° 0 mm 2 mps 633 mmHg 95%
    03:00 -4°C° 0 mm 2 mps 633 mmHg 95%
    04:00 -4°C° 0 mm 2 mps 633 mmHg 95%
    05:00 -5°C° 0 mm 2 mps 633 mmHg 93%
    06:00 -6°C° 0 mm 2 mps 634 mmHg 91%
    07:00 -6°C° 0 mm 2 mps 634 mmHg 89%
    08:00 -5°C° 0 mm 2 mps 634 mmHg 87%
    09:00 -4°C° 0 mm 2 mps 635 mmHg 84%
    10:00 -2°C° 0 mm 2 mps 636 mmHg 81%
    11:00 +1°C° 0 mm 1 mps 636 mmHg 84%
    12:00 +2°C° 0 mm 1 mps 636 mmHg 87%
    13:00 +3°C° 0 mm 1 mps 636 mmHg 90%
    14:00 +3°C° 0 mm 1 mps 636 mmHg 87%
    15:00 +2°C° 0 mm 1 mps 636 mmHg 84%
    16:00 +2°C° 0 mm 1 mps 636 mmHg 81%
    17:00 0°C° 0 mm 1 mps 636 mmHg 75%
    18:00 -1°C° 0 mm 1 mps 636 mmHg 68%
    19:00 -3°C° 0 mm 1 mps 636 mmHg 61%
    20:00 -5°C° 0 mm 2 mps 636 mmHg 59%
    21:00 -5°C° 0 mm 2 mps 636 mmHg 57%
    22:00 -5°C° 0 mm 2 mps 636 mmHg 54%
    23:00 -5°C° 0 mm 2 mps 636 mmHg 56%

    24 January, Wednesday

    Time Temperature Precipitation Wind Pressure Humidity
    00:00 -4°C° 0 mm 2 mps 637 mmHg 57%
    01:00 -4°C° 0 mm 2 mps 637 mmHg 58%
    02:00 -1°C° 0 mm 1 mps 637 mmHg 59%
    03:00 -1°C° 0 mm 1 mps 637 mmHg 59%
    04:00 0°C° 0 mm 1 mps 637 mmHg 59%
    05:00 0°C° 0 mm 1 mps 637 mmHg 59%
    06:00 0°C° 0 mm 1 mps 637 mmHg 58%
    07:00 -1°C° 0 mm 1 mps 637 mmHg 57%
    08:00 0°C° 0 mm 1 mps 637 mmHg 63%
    09:00 +1°C° 0 mm 2 mps 638 mmHg 68%
    10:00 +2°C° 0 mm 2 mps 638 mmHg 74%
    11:00 +2°C° 0 mm 2 mps 638 mmHg 81%
    12:00 +3°C° 0 mm 2 mps 638 mmHg 87%
    13:00 +3°C° 0 mm 2 mps 638 mmHg 93%
    14:00 +3°C° 0 mm 2 mps 637 mmHg 91%
    15:00 +3°C° 0 mm 2 mps 637 mmHg 88%
    16:00 +2°C° 0 mm 2 mps 636 mmHg 85%
    17:00 +1°C° 0 mm 2 mps 636 mmHg 80%
    18:00 -1°C° 0 mm 3 mps 636 mmHg 75%
    19:00 -2°C° 0 mm 3 mps 635 mmHg 71%
    20:00 -4°C° 0 mm 3 mps 635 mmHg 70%
    21:00 -4°C° 0 mm 3 mps 635 mmHg 68%
    22:00 -4°C° 0 mm 3 mps 635 mmHg 67%
    23:00 -4°C° 0 mm 3 mps 635 mmHg 67%

    25 January, Thursday

    Time Temperature Precipitation Wind Pressure Humidity
    00:00 -4°C° 0 mm 3 mps 635 mmHg 68%
    01:00 -4°C° 0 mm 3 mps 635 mmHg 68%
    02:00 -4°C° 0 mm 3 mps 634 mmHg 68%
    03:00 -4°C° 0 mm 3 mps 634 mmHg 69%
    04:00 -4°C° 0 mm 3 mps 634 mmHg 70%
    05:00 -3°C° 0 mm 2 mps 634 mmHg 70%
    06:00 -3°C° 0 mm 2 mps 634 mmHg 70%
    07:00 -3°C° 0 mm 2 mps 634 mmHg 71%
    08:00 -2°C° 0 mm 2 mps 634 mmHg 73%
    09:00 -1°C° 0 mm 2 mps 634 mmHg 76%
    10:00 +1°C° 0 mm 2 mps 634 mmHg 79%
    11:00 +1°C° 0 mm 2 mps 634 mmHg 83%
    12:00 +2°C° 0 mm 2 mps 634 mmHg 88%
    13:00 +2°C° 0 mm 2 mps 633 mmHg 93%
    14:00 +2°C° 0 mm 2 mps 633 mmHg 92%
    15:00 +2°C° 0 mm 2 mps 632 mmHg 92%
    16:00 +1°C° 0 mm 2 mps 632 mmHg 91%
    17:00 -1°C° 0 mm 2 mps 632 mmHg 90%
    18:00 -2°C° 0 mm 2 mps 631 mmHg 89%
    19:00 -2°C° 0 mm 2 mps 631 mmHg 88%
    20:00 -4°C° 0 mm 3 mps 631 mmHg 87%
    21:00 -4°C° 0 mm 3 mps 631 mmHg 87%
    22:00 -4°C° 0 mm 3 mps 630 mmHg 87%
    23:00 -4°C° 0 mm 3 mps 630 mmHg 87%

    26 January, Friday

    Time Temperature Precipitation Wind Pressure Humidity
    00:00 -4°C° 0 mm 3 mps 630 mmHg 87%
    01:00 -4°C° 0 mm 3 mps 630 mmHg 87%
    02:00 -4°C° 0 mm 3 mps 630 mmHg 87%
    03:00 -4°C° 0 mm 3 mps 629 mmHg 87%
    04:00 -5°C° 0 mm 3 mps 629 mmHg 88%
    05:00 -5°C° 0 mm 3 mps 629 mmHg 88%
    06:00 -5°C° 0 mm 3 mps 629 mmHg 88%
    07:00 -5°C° 0 mm 3 mps 628 mmHg 88%
    08:00 -3°C° 0.1 mm 2 mps 629 mmHg 89%
    09:00 -2°C° 0.1 mm 2 mps 629 mmHg 90%
    10:00 -1°C° 0.1 mm 2 mps 630 mmHg 91%
    11:00 -1°C° 0.5 mm 2 mps 630 mmHg 93%
    12:00 -1°C° 0.5 mm 2 mps 630 mmHg 94%
    13:00 +1°C° 0.5 mm 2 mps 630 mmHg 96%
    14:00 -1°C° 1.4 mm 2 mps 630 mmHg 96%
    15:00 +1°C° 1.4 mm 1 mps 631 mmHg 97%
    16:00 0°C° 1.4 mm 1 mps 631 mmHg 97%
    17:00 0°C° 1.6 mm 1 mps 631 mmHg 97%
    18:00 -1°C° 1.6 mm 1 mps 631 mmHg 97%
    19:00 -1°C° 1.6 mm 1 mps 631 mmHg 97%
    20:00 -2°C° 1.6 mm 1 mps 631 mmHg 97%
    21:00 -4°C° 1.6 mm 2 mps 632 mmHg 97%
    22:00 -5°C° 1.6 mm 2 mps 632 mmHg 97%
    23:00 -5°C° 1.3 mm 2 mps 632 mmHg 97%
    Show more